[[{"header":{"parameterUnit":"m.s-1","parameterCategory":1,"la1":30.2991,"la2":30.254,"lo1":-89.0895,"lo2":-89.0444,"dy":0.0017,"dx":0.0017,"nx":28,"ny":28,"refTime":"2025-01-13T09:00:00:Z","depth":0,"parameterNumber":2,"parameterNumberName":"U-component_of_WINDS"},"data":[0,0,0,0,0,0,0,0,0,0,0,0,0,0,0,0,0,0,0,0,0,0,0,0,0,0,0,0,0,0,0,0,0,0,0,0,0,0,0,0,0,0,0,0,0,0,0,0,0,0,0,0,0,0,0,0,0,0,-6.4579,-6.4579,0,-6.4598,-6.4598,-6.4598,-6.4427,-6.4422,-6.4417,-6.4413,-6.4431,-6.4436,-6.4441,0,0,0,0,0,0,0,0,0,0,0,0,0,-6.4392,-6.4396,-6.4579,-6.4579,-6.4579,-6.4598,-6.4598,-6.4598,-6.4428,-6.4422,-6.4416,-6.4411,-6.4429,-6.4435,-6.4441,0,0,0,0,0,0,0,0,0,0,0,0,0,-6.4448,-6.4397,-6.4579,-6.4496,-6.4489,-6.4598,-6.4598,-6.4598,-6.4429,-6.4422,-6.4415,-6.4408,-6.4427,-6.4435,-6.4442,-6.463,0,0,-6.4464,-6.4467,0,0,0,0,0,0,0,0,-6.4445,-6.4455,-6.4508,-6.4502,-6.4494,-6.4503,-6.4539,-6.4609,-6.4431,-6.4452,-6.4413,-6.4404,-6.446,-6.4465,-6.4484,-6.4631,-6.4632,-6.4465,-6.4469,-6.4473,-6.4475,0,0,0,0,0,0,0,-6.4441,-6.4453,-6.4586,-6.4509,-6.4501,-6.4458,-6.4458,-6.4551,-6.4496,-6.4449,-6.4437,-6.4442,-6.4455,-6.4477,-6.4483,-6.4632,-6.4465,-6.4471,-6.4476,-6.4479,-6.4934,-6.4941,0,0,0,0,0,0,-6.4449,-6.4451,-6.4585,-6.4587,-6.4452,-6.4467,-6.4467,-6.4507,-6.4494,-6.4485,-6.4448,-6.4434,-6.4468,-6.4475,-6.4483,-6.4703,-6.4473,-6.4479,-6.4484,-6.4926,-6.4936,-6.4944,0,0,0,0,0,0,-6.4446,-6.4463,-6.4585,-6.4516,-6.4528,-6.4478,-6.4524,-6.4511,-6.4533,-6.4493,-6.4482,-6.4481,-6.4463,-6.4473,-6.4595,-6.4701,-6.4483,-6.4489,-6.4917,-6.4929,-6.494,-6.5144,0,0,0,0,0,0,-6.4441,-6.4462,-6.4534,-6.4519,-6.4532,-6.4698,-6.4531,-6.4517,-6.4546,-6.4528,-6.4521,-6.4513,-6.4458,-6.4585,-6.4602,-6.4707,-6.4495,-6.4907,-6.4923,-6.4936,-6.5127,-6.5161,-6.519,0,0,0,0,0,-6.4435,-6.459,-6.4539,-6.4556,-6.4621,-6.4704,-6.4712,-6.4646,-6.4556,-6.4627,-6.4601,-6.4513,-6.4686,-6.4599,-6.4617,-6.4726,-6.49,-6.4918,-6.4935,-6.5114,-6.5154,-6.5189,0,0,0,0,0,0,-6.4619,-6.4587,-6.4529,-6.4684,-6.4698,-6.4675,-6.4763,-6.4691,-6.4731,-6.4712,-6.4627,-6.4627,-6.4764,-6.4756,-6.4659,-6.4907,-6.4777,-6.4799,-6.4907,-6.4945,-6.4976,-6.4975,-6.4501,0,0,0,0,0,-6.4677,-6.4748,-6.4716,-6.4856,-6.4866,-6.4814,-6.4848,-6.4796,-6.4806,-6.4811,-6.4794,-6.4808,-6.4865,-6.4904,-6.4955,-6.5125,-6.5121,-6.5209,-6.524,-6.5266,-6.5286,-6.5375,-6.5414,-6.5001,-6.5,-6.5,0,0,-6.4799,-6.479,-6.484,-6.4893,-6.4898,-6.4973,-6.482,-6.4905,-6.496,-6.4824,-6.4939,-6.4927,-6.4936,-6.5084,-6.5147,-6.5082,-6.5399,-6.5288,-6.5308,-6.5314,-6.5397,-6.5436,-6.5471,-6.5012,-6.501,-6.5008,0,0,-6.5059,-6.506,-6.5177,-6.5185,-6.5195,-6.5159,-6.5187,-6.5175,-6.5162,-6.5276,-6.5176,-6.5239,-6.5339,-6.535,-6.5369,-6.5634,-6.5554,-6.5652,-6.5815,-6.5903,-6.5936,-6.5964,-6.606,-6.6095,-6.5672,-6.5673,-6.5673,0,-6.5209,-6.5319,-6.5246,-6.5339,-6.5365,-6.5246,-6.5363,-6.5374,-6.54,-6.542,-6.5346,-6.547,-6.5468,-6.5616,-6.5681,-6.57,-6.5729,-6.5653,-6.5937,-6.5965,-6.5991,-6.608,-6.6116,-6.5685,-6.5683,-6.5682,-6.5681,0,-6.5503,-6.5581,-6.5674,-6.5703,-6.5739,-6.5844,-6.5786,-6.5831,-6.5776,-6.5748,-6.5866,-6.5859,-6.5906,-6.5937,-6.5884,-6.6078,-6.6037,-6.5952,-6.582,-6.6043,-6.6126,-6.616,-6.5702,-6.5697,-6.5694,-6.5691,0,0,-6.588,-6.5867,-6.5903,-6.5915,-6.5916,-6.5974,-6.6073,-6.612,-6.6161,-6.6182,-6.6263,-6.6351,-6.6272,-6.6294,-6.624,-6.6318,-6.6529,-6.6223,-6.6222,-6.6281,-6.6744,-6.6809,-6.685,-6.6476,-6.6482,-6.6487,-6.6743,0,-6.6134,-6.6304,-6.6241,-6.6415,-6.6485,-6.6373,-6.6459,-6.647,-6.6446,-6.6502,-6.6475,-6.6539,-6.643,-6.6442,-6.6514,-6.6489,-6.6621,-6.6469,-6.6551,-6.6555,-6.6553,-6.6893,-6.6961,-6.7203,-6.6775,-6.678,-6.6784,0,-6.6454,-6.6489,-6.6671,-6.6661,-6.6688,-6.6767,-6.6805,-6.686,-6.6869,-6.6846,-6.6871,-6.68,-6.6896,-6.6765,-6.6896,-6.6794,-6.6823,-6.6816,-6.6823,-6.6829,-6.6684,-6.6908,-6.7278,-6.7315,-6.6834,-6.683,-6.6827,0,-6.6711,-6.6804,-6.6925,-6.6938,-6.6929,-6.6988,-6.6986,-6.6988,-6.7021,-6.7053,-6.7073,-6.7117,-6.7141,-6.7176,-6.712,-6.7029,-6.7259,-6.7122,-6.7243,-6.7245,-6.7297,-6.7295,-6.7678,-6.7315,-6.7315,-6.7314,-6.7313,0,-6.7002,-6.7118,-6.7041,-6.7115,-6.7241,-6.7167,-6.7294,-6.728,-6.7283,-6.7352,-6.7257,-6.7324,-6.7244,-6.7304,-6.726,-6.7375,-6.7386,-6.737,-6.7358,-6.738,-6.7382,-6.7398,-6.738,-6.7324,-6.7322,-6.732,-6.7318,0,-6.7312,-6.7265,-6.7389,-6.7371,-6.7369,-6.7462,-6.7446,-6.7514,-6.7483,-6.7572,-6.7589,-6.7541,-6.7606,-6.7553,-6.7615,-6.7586,-6.7739,-6.7702,-6.7737,-6.7727,-6.785,-6.784,-6.8258,-6.831,-6.7914,-6.7918,-6.7921,0,-6.7501,-6.7587,-6.7579,-6.7619,-6.7624,-6.7689,-6.7722,-6.7652,-6.769,-6.7708,-6.7773,-6.783,-6.7872,-6.7981,-6.7951,-6.7999,-6.7962,-6.8106,-6.7969,-6.7988,-6.7965,-6.7961,-6.797,-6.8134,-6.8138,-6.8142,-6.8145,0,-6.7842,-6.7814,-6.7866,-6.791,-6.7952,-6.7983,-6.8006,-6.8044,-6.7973,-6.802,-6.8086,-6.8119,-6.8183,-6.8241,-6.8278,-6.8276,-6.82,-6.8189,-6.8219,-6.8243,-6.826,-6.8253,-6.7813,-6.8179,-6.8176,-6.8174,-6.8172,-6.817,-6.8097,-6.8169,-6.8174,-6.8235,-6.8245,-6.8269,-6.8332,-6.831,-6.8364,-6.8412,-6.8367,-6.8446,-6.8453,-6.8496,-6.8503,-6.8563,-6.8504,-6.8548,-6.8559,-6.8571,-6.8589,-6.825,-6.857,-6.8569,-6.8568,-6.8567,-6.8566,0,-6.8433,-6.8431,-6.8488,-6.8524,-6.8572,-6.8496,-6.8518,-6.8563,-6.8634,-6.8647,-6.8691,-6.8766,-6.8822,-6.8797,-6.8845,-6.8899,-6.8865,-6.8914,-6.891,-6.8911,-6.8639,-6.8609,-6.8941,-6.8941,-6.8941,-6.894,-6.894,-6.894,-6.8614,-6.8732,-6.8706,-6.8827,-6.8824,-6.8902,-6.8921,-6.8943,-6.8952,-6.9042,-6.9088,-6.9071,-6.9069,-6.9117,-6.9164,-6.9155,-6.9178,-6.924,-6.9219,-6.8966,-6.893,-6.8894,-6.8865,-6.9245,-6.9246,-6.9485,-6.9487,-6.9489]},{"header":{"parameterUnit":"m.s-1","parameterCategory":1,"la1":30.2991,"la2":30.254,"lo1":-89.0895,"lo2":-89.0444,"dy":0.0017,"dx":0.0017,"nx":28,"ny":28,"refTime":"2025-01-13T09:00:00:Z","depth":0,"parameterNumber":3,"parameterNumberName":"V-component_of_WINDS"},"data":[0,0,0,0,0,0,0,0,0,0,0,0,0,0,0,0,0,0,0,0,0,0,0,0,0,0,0,0,0,0,0,0,0,0,0,0,0,0,0,0,0,0,0,0,0,0,0,0,0,0,0,0,0,0,0,0,0,0,-3.4011,-3.401,0,-3.3942,-3.3941,-3.394,-3.3793,-3.379,-3.3787,-3.3784,-3.3718,-3.3719,-3.372,0,0,0,0,0,0,0,0,0,0,0,0,0,-3.402,-3.402,-3.4011,-3.401,-3.4009,-3.3942,-3.3941,-3.394,-3.3793,-3.379,-3.3786,-3.3783,-3.3718,-3.3719,-3.372,0,0,0,0,0,0,0,0,0,0,0,0,0,-3.399,-3.4021,-3.4011,-3.3928,-3.392,-3.3942,-3.3941,-3.394,-3.3794,-3.379,-3.3785,-3.3781,-3.3717,-3.3719,-3.372,-3.382,0,0,-3.3725,-3.3726,0,0,0,0,0,0,0,0,-3.3992,-3.399,-3.3941,-3.3934,-3.3925,-3.3871,-3.392,-3.39,-3.3795,-3.3842,-3.3784,-3.3779,-3.3773,-3.377,-3.3767,-3.3817,-3.3814,-3.3725,-3.3726,-3.3727,-3.3727,0,0,0,0,0,0,0,-3.3994,-3.3992,-3.3984,-3.3941,-3.3931,-3.3895,-3.3886,-3.3915,-3.3834,-3.3838,-3.3827,-3.382,-3.3768,-3.3766,-3.3764,-3.3813,-3.3725,-3.3727,-3.3728,-3.3728,-3.3941,-3.3945,0,0,0,0,0,0,-3.4008,-3.3995,-3.3986,-3.3982,-3.3948,-3.3899,-3.3888,-3.3893,-3.3833,-3.3819,-3.3824,-3.3814,-3.3765,-3.3763,-3.3761,-3.3874,-3.3727,-3.3728,-3.3729,-3.3936,-3.3942,-3.3947,0,0,0,0,0,0,-3.4009,-3.4008,-3.3989,-3.3985,-3.398,-3.3903,-3.391,-3.3894,-3.3892,-3.3823,-3.3808,-3.3837,-3.3762,-3.3759,-3.3806,-3.387,-3.3729,-3.373,-3.393,-3.3938,-3.3944,-3.41,0,0,0,0,0,0,-3.4009,-3.401,-3.4046,-3.3987,-3.3981,-3.4034,-3.3914,-3.3896,-3.3894,-3.388,-3.3831,-3.3818,-3.3758,-3.3804,-3.3808,-3.3869,-3.3732,-3.3924,-3.3934,-3.3942,-3.4089,-3.4112,-3.4131,0,0,0,0,0,-3.401,-3.4093,-3.4048,-3.4048,-3.4024,-3.4038,-3.4034,-3.3962,-3.39,-3.3936,-3.3892,-3.382,-3.3862,-3.3811,-3.3813,-3.3876,-3.392,-3.3931,-3.3941,-3.408,-3.4107,-3.4131,0,0,0,0,0,0,-3.4164,-3.4084,-3.4033,-3.41,-3.4077,-3.4013,-3.4057,-3.3993,-3.3989,-3.3976,-3.3887,-3.3877,-3.3936,-3.391,-3.3855,-3.3969,-3.3879,-3.3891,-3.3984,-3.4009,-3.403,-3.4036,-3.3733,0,0,0,0,0,-3.4205,-3.4221,-3.4151,-3.4217,-3.4208,-3.4135,-3.4138,-3.4084,-3.4057,-3.4047,-3.4005,-3.3983,-3.3991,-3.3998,-3.4002,-3.4084,-3.4072,-3.4128,-3.4149,-3.4167,-3.4179,-3.4221,-3.4245,-3.3982,-3.3982,-3.3981,0,0,-3.4291,-3.425,-3.4266,-3.4247,-3.4222,-3.4243,-3.4127,-3.4154,-3.4168,-3.4051,-3.4092,-3.4062,-3.4031,-3.4096,-3.4123,-3.4076,-3.4248,-3.418,-3.4195,-3.4197,-3.4234,-3.4259,-3.4281,-3.3989,-3.3988,-3.3986,0,0,-3.4458,-3.4428,-3.4479,-3.4457,-3.442,-3.4371,-3.4384,-3.4329,-3.4304,-3.4343,-3.4256,-3.4272,-3.4288,-3.4269,-3.4262,-3.4422,-3.4356,-3.4425,-3.4536,-3.4578,-3.4599,-3.4617,-3.4675,-3.4697,-3.4437,-3.4437,-3.4437,0,-3.4571,-3.4596,-3.4514,-3.4546,-3.4541,-3.4433,-3.4485,-3.4467,-3.4435,-3.4435,-3.4382,-3.4399,-3.4371,-3.443,-3.4469,-3.4466,-3.4479,-3.4431,-3.4602,-3.4619,-3.4635,-3.469,-3.4712,-3.4446,-3.4445,-3.4444,-3.4443,0,-3.4736,-3.4756,-3.4801,-3.4771,-3.477,-3.4813,-3.4738,-3.4748,-3.4693,-3.465,-3.4692,-3.4654,-3.4648,-3.4658,-3.4606,-3.471,-3.4683,-3.4618,-3.4527,-3.467,-3.472,-3.474,-3.4459,-3.4455,-3.4453,-3.4451,0,0,-3.5001,-3.4923,-3.4941,-3.4926,-3.4877,-3.4891,-3.4929,-3.4921,-3.4931,-3.4912,-3.4942,-3.4957,-3.4896,-3.4889,-3.4833,-3.487,-3.5,-3.48,-3.4798,-3.484,-3.5114,-3.5165,-3.519,-3.4955,-3.4959,-3.4961,-3.5117,0,-3.5158,-3.5216,-3.5143,-3.5217,-3.5234,-3.5132,-3.5164,-3.5139,-3.5099,-3.5109,-3.5064,-3.5077,-3.4995,-3.499,-3.5021,-3.4978,-3.5054,-3.4965,-3.4984,-3.4986,-3.4997,-3.5216,-3.5269,-3.5419,-3.5136,-3.5139,-3.5142,0,-3.535,-3.5338,-3.5414,-3.536,-3.5365,-3.5395,-3.5382,-3.5392,-3.5361,-3.533,-3.5321,-3.5254,-3.5287,-3.5198,-3.5244,-3.5185,-3.5188,-3.5168,-3.5172,-3.5172,-3.5074,-3.5224,-3.5464,-3.5488,-3.5171,-3.5169,-3.5167,0,-3.5537,-3.554,-3.5586,-3.5576,-3.5514,-3.5538,-3.5513,-3.5478,-3.5478,-3.5467,-3.5466,-3.546,-3.5457,-3.5455,-3.5388,-3.5329,-3.5444,-3.5348,-3.542,-3.5422,-3.5451,-3.545,-3.5696,-3.545,-3.545,-3.5449,-3.5449,0,-3.5721,-3.5772,-3.5669,-3.5697,-3.5751,-3.5667,-3.5723,-3.5688,-3.5657,-3.5678,-3.5589,-3.5611,-3.5521,-3.5533,-3.5482,-3.5529,-3.5528,-3.5505,-3.5491,-3.5514,-3.5517,-3.5516,-3.5505,-3.5455,-3.5454,-3.5453,-3.5452,0,-3.594,-3.5873,-3.5916,-3.5853,-3.5838,-3.5881,-3.5828,-3.5852,-3.5805,-3.5833,-3.5835,-3.5763,-3.5773,-3.5706,-3.5704,-3.5669,-3.5742,-3.5709,-3.5753,-3.5743,-3.582,-3.5814,-3.6076,-3.6106,-3.5839,-3.5842,-3.5844,0,-3.6064,-3.61,-3.604,-3.6047,-3.6026,-3.6039,-3.6037,-3.5955,-3.5958,-3.5926,-3.5955,-3.5957,-3.5955,-3.5976,-3.5925,-3.5923,-3.5891,-3.5982,-3.589,-3.5912,-3.5894,-3.5894,-3.5898,-3.6003,-3.6006,-3.6009,-3.6011,0,-3.629,-3.6254,-3.6255,-3.6245,-3.6246,-3.6234,-3.6217,-3.6228,-3.6139,-3.6147,-3.6155,-3.6153,-3.615,-3.6155,-3.6143,-3.6119,-3.6052,-3.604,-3.6057,-3.6082,-3.6106,-3.6096,-3.5807,-3.6035,-3.6032,-3.6031,-3.6029,-3.6028,-3.6466,-3.6493,-3.6455,-3.646,-3.6437,-3.6423,-3.6443,-3.6398,-3.6403,-3.6393,-3.6344,-3.6362,-3.633,-3.6306,-3.6289,-3.6303,-3.6259,-3.6283,-3.629,-3.6298,-3.6312,-3.6102,-3.63,-3.6299,-3.6298,-3.6298,-3.6297,0,-3.6689,-3.6659,-3.6663,-3.6641,-3.6645,-3.6577,-3.6555,-3.6563,-3.6579,-3.6554,-3.6553,-3.6563,-3.6566,-3.6514,-3.6511,-3.6533,-3.6502,-3.6535,-3.6534,-3.653,-3.635,-3.6337,-3.656,-3.656,-3.656,-3.656,-3.656,-3.656,-3.6806,-3.6849,-3.6809,-3.6841,-3.681,-3.6826,-3.6818,-3.6805,-3.6785,-3.6799,-3.6801,-3.6766,-3.6731,-3.6724,-3.6725,-3.671,-3.6714,-3.6758,-3.6733,-3.6567,-3.6542,-3.6518,-3.6505,-3.6759,-3.676,-3.6911,-3.6913,-3.6914]}]]